Live-Position
3D-Globus wird geladen...
Über Beidou DW 60
Group: 3 satellites
Beschreibung wird geladen...
Nächste Überflüge
Passes for default location (London). Set your location on the main map for personalized predictions.
Höhenverlauf
Loading altitude history...
No altitude history available
Zweizeiliger Elementsatz
1 61187U 24168C 26121.00331709 -.00000079 00000-0 00000+0 0 9995
2 61187 54.5116 303.8640 0002560 40.2999 318.3931 1.86230425 8374
Epoch: 1. Mai 2026 •
Age: 31 hours
Aktueller Status
Höhe 21531.2 km
Geschwindigkeit 3.78 km/s
Subsatellitenpunkt 19.89°N,
136.78°E
Startdatum 19. Sept. 2024
Alter 1.6 years
Typ navigation
Technische Details
Klassifizierung Payload
Masse 1014.00 kg
Trockenmasse 850.00 kg
Gesamtmasse 1014.00 kg
Länge 2.20 m
Durchmesser 1.70 m
Spannweite 10.00 m
Form Box + 2 Pan
Hersteller CAST
Bus-Typ BD-3M
Phasenstatus In Orbit
Besitzer/Staat CNSA/CN
Most Searched
Loading...